Home > Weather > Wheaton > Past weeks

Flag for USA Past Weather in Wheaton, Illinois, USA — Yesterday and Last 2 Weeks

Now
72 °F

Clear.


Feels Like: 73 °F
Forecast: 69 / 88 °F
Wind: No wind

Location: Dupage Airport

Current Time: Jul 27, 2016 at 12:57:04 AM

Latest Report: Jul 26, 2016 at 11:52 PM


Visibility: 10 mi

Pressure: 30.00 "Hg

Humidity: 76%

Dew Point: 64 °F

Location of WheatonLocation

Past Weather in Wheaton — Graph

°F

Wheaton Temperature Yesterday

Maximum temperature yesterday: 86 °F (at 12:52 PM)
Minimum temperature yesterday: 65 °F (at 5:52 AM)
Average temperature yesterday: 78 °F

High & Low Weather Summary for the Past Weeks

 TemperatureHumidityPressure
High92 °F (Jul 21, 1:52 PM)94% (Jul 19, 3:52 AM)30.24 "Hg (Jul 19, 3:52 AM)
Low53 °F (Jul 16, 5:52 AM)37% (Jul 16, 4:52 PM)29.71 "Hg (Jul 13, 7:52 PM)
Average76 °F73%29.99 "Hg
* Reported Jul 11 11:52 PM — Jul 26 11:52 PM, Wheaton, Weather by CustomWeather, © 2016

Note: Actual official high and low records may vary slightly from our data, if they occured in-between our weather recording intervals... More about our weather records

Advertising

Wheaton Weather History for the Previous 24 Hours

Scroll right to see more
 ConditionsComfort  
Time TempWeatherWind HumidityBarometerVisibility
11:52 PM
Tue, Jul 26
72 °FClear.No wind76%30.00 "Hg10 mi
10:52 PM73 °FClear.No wind76%30.00 "Hg10 mi
9:52 PM76 °FClear.No wind67%30.00 "Hg10 mi
8:52 PM79 °FPassing clouds.3 mph58%29.98 "Hg10 mi
7:52 PM81 °FPartly sunny.7 mph56%29.99 "Hg10 mi
6:52 PM83 °FScattered clouds.9 mph55%29.99 "Hg10 mi
5:52 PM86 °FPartly sunny.6 mph49%29.97 "Hg10 mi
4:52 PM86 °FPassing clouds.3 mph48%29.98 "Hg10 mi
3:52 PM85 °FPassing clouds.5 mph51%29.99 "Hg10 mi
2:52 PM86 °FScattered clouds.9 mph49%30.01 "Hg10 mi
1:52 PM86 °FPassing clouds.No wind46%30.02 "Hg10 mi
12:52 PM86 °FPassing clouds.5 mph43%30.03 "Hg10 mi
11:52 AM84 °FPartly sunny.3 mph49%30.04 "Hg10 mi
10:52 AM83 °FScattered clouds.No wind53%30.05 "Hg10 mi
9:52 AM81 °FSunny.3 mph54%30.05 "Hg10 mi
8:52 AM80 °FSunny.No wind62%30.04 "Hg10 mi
7:52 AM76 °FSunny.5 mph72%30.05 "Hg10 mi
6:52 AM71 °FSunny.No wind84%30.05 "Hg9 mi
5:52 AM65 °FClear.3 mph91%30.05 "Hg9 mi
4:52 AM66 °FClear.5 mph87%30.03 "Hg10 mi
3:52 AM68 °FClear.No wind87%30.02 "Hg10 mi
2:52 AM69 °FClear.5 mph84%30.01 "Hg10 mi
1:52 AM69 °FClear.3 mph84%30.01 "Hg10 mi
12:52 AM70 °FClear.3 mph81%30.02 "Hg10 mi
Weather by CustomWeather, © 2016

See weather overviewHow to use our weather pages